Location: Anne Acres
(38.7004°N, 75.0827°W)
Time: 09:03:57
(UTC+00:00)

Envisat - Pass Details

Date: 13 October 2024
Orbit: 762 x 763 km, 98.3° (Epoch: 03 November)

Event Time Altitude Azimuth Distance (km) Brightness Sun altitude
Rises 08:09:13 0° 12° (NNE) 3,232 6.6 -35.2°
Reaches altitude 10° 08:11:32 10° 12° (NNE) 2,302 5.8 -34.8°
Enters shadow 08:12:48 18° 12° (NNE) 1,802 5.2 -34.6°
